Home   Weather   Drummondville   Past weeks

Flag for Canada Past Weather in Drummondville, Quebec, Canada — Yesterday and Last 2 Weeks

Now
47 °F

Cool.


Feels Like: 45 °F
Forecast: 46 / 65 °F
Wind: 6 mph from East

Location: Nicolet

Current Time: Apr 25, 2017 at 10:41:52 pm

Latest Report: Apr 25, 2017 at 10:00 pm


Visibility: N/A

Pressure: 30.13 "Hg

Humidity: 93%

Dew Point: 46 °F

Location of DrummondvilleLocation

Past Weather in Drummondville — Graph

°F

Drummondville Temperature Yesterday

Maximum temperature yesterday: 46 °F (at 5:00 pm)
Minimum temperature yesterday: 28 °F (at 7:00 am)
Average temperature yesterday: 37 °F

High & Low Weather Summary for the Past Weeks

 TemperatureHumidityPressure
High61 °F (Apr 15, 6:00 pm)99% (Apr 16, 10:00 am)30.50 "Hg (Apr 16, 10:00 am)
Low28 °F (Apr 24, 7:00 am)25% (Apr 24, 6:00 pm)29.63 "Hg (Apr 16, 4:00 pm)
Average44 °F73%30.09 "Hg
* Reported Apr 10 9:00 pm — Apr 25 9:00 pm, Drummondville, Weather by CustomWeather, © 2017

Note: Actual official high and low records may vary slightly from our data, if they occured in-between our weather recording intervals... More about our weather records

Advertising

Drummondville Weather History for the Previous 24 Hours

Scroll right to see more
 ConditionsComfort  
Time TempWeatherWind HumidityBarometerVisibility
9:00 pm
Tue, Apr 25
48 °FCool.6 mph94%30.14 "HgN/A
8:00 pm49 °FCool.9 mph87%30.14 "HgN/A
7:00 pm52 °FCool.9 mph79%30.14 "HgN/A
6:00 pm50 °FCool.5 mph66%30.16 "HgN/A
5:00 pm51 °FCool.6 mph50%30.16 "HgN/A
4:00 pm50 °FCool.12 mph47%30.16 "HgN/A
3:00 pm51 °FCool.13 mph44%30.18 "HgN/A
2:00 pm51 °FCool.15 mph41%30.22 "HgN/A
1:00 pm50 °FCool.13 mph41%30.24 "HgN/A
12:00 pm49 °FCool.12 mph45%30.27 "HgN/A
11:00 am46 °FCool.12 mph50%30.29 "HgN/A
10:00 am43 °FQuite cool.10 mph50%30.30 "HgN/A
9:00 am40 °FQuite cool.12 mph46%30.31 "HgN/A
8:00 am38 °FChilly.13 mph52%30.32 "HgN/A
7:00 am35 °FChilly.12 mph60%30.30 "HgN/A
6:00 am34 °FChilly.12 mph60%30.31 "HgN/A
5:00 am34 °FChilly.9 mph64%30.30 "HgN/A
4:00 am35 °FChilly.9 mph60%30.30 "HgN/A
3:00 am36 °FChilly.9 mph49%30.30 "HgN/A
2:00 am36 °FChilly.6 mph46%30.31 "HgN/A
1:00 am37 °FChilly.6 mph46%30.30 "HgN/A
12:00 am36 °FChilly.5 mph50%30.32 "HgN/A
11:00 pm
Mon, Apr 24
39 °FChilly.5 mph48%30.31 "HgN/A
10:00 pm40 °FQuite cool.5 mph41%30.30 "HgN/A
Weather by CustomWeather, © 2017

See weather overviewHow to use our weather pages